Regional Weather Roundup
Issued by NWS Cleveland, OH

Home | Current Version | Previous Version | Text Only | Print | Product List | Glossary Off
Versions: 1 2 3 4 5 6 7 8 9 10 11 12 13 14 15 16 17 18 19 20 21 22 23 24 25 26 27 28 29 30 31 32 33 34 35 36 37 38 39 40 41 42 43 44 45 46 47 48 49 50

000
ASUS41 KCLE 210510
RWRCLE
OHIO REGIONAL WEATHER ROUNDUP
NATIONAL WEATHER SERVICE WILMINGTON, OH
1200 AM EST SAT JAN 21 2017

NOTE: "FAIR" INDICATES FEW OR NO CLOUDS BELOW 12,000 FEET WITH NO
SIGNIFICANT WEATHER AND/OR OBSTRUCTIONS TO VISIBILITY.

OHZ001>008-015>018-024>027-034-035-043-044-210600-
   NORTHWEST OHIO

CITY           SKY/WX    TMP DP  RH WIND       PRES   REMARKS
DEFIANCE       CLOUDY    46  45  96 SE5       29.73F FOG
FINDLAY        CLOUDY    49  45  86 CALM      29.75S
TOLEDO EXPRESS FOG       42  42 100 CALM      29.74F VSB 1/4
TOLEDO EXEC    CLOUDY    45  45 100 S6        29.76S FOG
LIMA           CLOUDY    49  47  93 S9        29.75S
$$

OHZ009>014-019>023-028>033-038-089-210600-
   NORTHEAST OHIO

CITY           SKY/WX    TMP DP  RH WIND       PRES   REMARKS
CLE-HOPKINS    FOG       46  43  89 S5        29.81S VSB 1/4
CLE-LAKEFRONT  FOG       42  42 100 CALM      29.78S VSB 1
CUY CO. ARPT   NOT AVBL
LORAIN-ELYRIA  FOG       45  43  93 S5        29.78F VSB 1/4
ASHTABULA      FOG       45  45 100 SE3       29.81R VSB 1/4
AKRON-CANTON   MOCLDY    49  45  86 S5        29.80S
WOOSTER        FAIR      42  40  92 SE3       29.80S FOG
MANSFIELD      FAIR      44  43  96 SE6       29.79R
YOUNGSTOWN     FAIR      49  47  93 S3        29.81R
$$

OHZ042-051>053-060>062-070>072-077>081-210600-
  SOUTHWEST OHIO

CITY           SKY/WX    TMP DP  RH WIND       PRES   REMARKS
CINC-COVINGTON FAIR      50  46  86 S8        29.75R
CINC-LUNKEN    FOG       44  44 100 CALM      29.77S VSB 1/4
HAMILTON       FOG       42  42 100 CALM      29.76F VSB 1
DAYTON         MOCLDY    47  45  93 SE9       29.77S
WRIGHT-PAT AFB MOCLDY    47  47 100 SE5       29.76F
DAYTON GENERAL NOT AVBL
WILMINGTON     FAIR      46  43  89 E3        29.78R
$$

OHZ036-037-039>041-045>050-054>059-063>069-073>076-082>088-210600-
  CENTRAL AND SOUTHEAST OHIO

CITY           SKY/WX    TMP DP  RH WIND       PRES   REMARKS
COLUMBUS       MOCLDY    51  46  83 SE3       29.78S
OSU AIRPORT    MOCLDY    47  47 100 CALM      29.79R
BOLTON FIELD   CLOUDY    48  47  97 CALM      29.79S
RICKENBACK AFB   N/A     48  46  94 SE7       29.78S
NEWARK         FOG       38  37  97 CALM      29.79S VSB 1/4
MARION         FAIR      41  40  96 S5        29.79R
LANCASTER      FAIR      47  45  93 S5        29.80S
ZANESVILLE     FOG       45  43  93 CALM      29.80F VSB 3/4
NEW PHILLY     FOG       42  41  96 SE6       29.81F VSB 3/4
$$



USA.gov is the U.S. government's official web portal to all federal, state and local government web resources and services.